Location: *
(48.8780°N, 19.2358°E)
Time: 12:48:22
(UTC+00:00)

USA 238 - Pass Details

Date: 18 October 2019
Orbit: 1027 x 1185 km, 63.4° (Epoch: 07 November)

Event Time Altitude Azimuth Distance (km) Brightness Sun altitude
Rises 17:33:08 0° 199° (SSW) 3,770 6.7 -17.9°
Reaches altitude 10° 17:35:47 10° 194° (SSW) 2,831 6.0 -18.4°
Maximum altitude 17:42:11 51° 121° (ESE) 1,307 3.8 -19.4°
Enters shadow 17:46:24 23° 56° (NE) 2,131 4.9 -20.1°
